North Bennington, VT

3:23 AM EST on February 24, 2017 (GMT -0500)
Morse State

Weather History for KDDH - August, 2014

Change the Weather History Date:

Friday, August 1, 2014

  Actual Average Record
Temperature  
Mean Temperature 68 °F 68 °F  
Max Temperature 82 °F 79 °F 91 °F (2006)
Min Temperature 54 °F 57 °F 50 °F (2010)
Degree Days  
Heating Degree Days 0 1  
Month to date heating degree days 0 1  
Since 1 June heating degree days 58 122  
Since 1 July heating degree days 11 25  
Cooling Degree Days 3 4  
Month to date cooling degree days 3 4  
Year to date cooling degree days 205 199  
Since 1 June cooling degree days 189 185  
Growing Degree Days 18 (Base 50)    
Moisture  
Dew Point 58 °F    
Average Humidity 77    
Maximum Humidity 100    
Minimum Humidity 54    
Precipitation  
Precipitation 0.04 in 0.14 in 2.26 in (2003)
Month to date precipitation 0.04 0.14  
Year to date precipitation 24.15 23.68  
Sea Level Pressure  
Sea Level Pressure 30.18 in    
Wind  
Wind Speed 2 mph (SSE)    
Max Wind Speed 10 mph    
Max Gust Speed 15 mph    
Visibility 5 miles    
Events Fog , Rain    
T = Trace of Precipitation, MM = Missing Value Source: NWS Daily Summary

Daily Weather History Graph

Daily Weather History Graph

Search for Another Location

Airport or City:

Trip Planner

Search our weather history database for the weather conditions in past years. The results will help you decide how hot, cold, wet, or windy it might be!

Date:

Astronomy

Aug. 01, 2014 Rise Set
Actual Time 5:44 AM EDT 8:13 PM EDT
Civil Twilight 5:11 AM EDT 8:45 PM EDT
Nautical Twilight 4:31 AM EDT 9:25 PM EDT
Astronomical Twilight 3:46 AM EDT 10:10 PM EDT
Moon 11:14 AM EDT (8/1) 10:47 PM EDT (8/1)
Length of Visible Light 15h 33m
Length of Day
14h 29m
Waxing Crescent, 27% of the Moon is Illuminated
Aug 1
Waxing Crescent
Aug 3
First Quarter
Aug 10
Full
Aug 17
Last Quarter
Aug 25
New

Hourly Weather History & Observations

Time (EDT) Temp. Heat Index Dew Point Humidity Pressure Visibility Wind Dir Wind Speed Gust Speed Precip Events Conditions
12:00 AM 57.0 °F - 55.9 °F 96% 30.16 in 2.0 mi Calm Calm - N/A   Scattered Clouds
12:40 AM 57.0 °F - 55.9 °F 96% 30.16 in 3.0 mi Variable 3.5 mph - N/A   Partly Cloudy
12:51 AM 57.2 °F - 55.4 °F 94% 30.16 in 2.5 mi Calm Calm - N/A   Partly Cloudy
12:54 AM 57.0 °F - 55.9 °F 96% 30.15 in 3.0 mi Calm Calm - N/A   Clear
1:21 AM 55.9 °F - 55.0 °F 97% 30.16 in 1.5 mi Calm Calm - N/A   Clear
1:25 AM 57.0 °F - 55.0 °F 93% 30.16 in 0.8 mi Calm Calm - N/A   Mist
1:45 AM 57.9 °F - 57.0 °F 97% 30.16 in 2.0 mi SSE 4.6 mph - N/A   Scattered Clouds
1:52 AM 55.4 °F - 55.4 °F 100% 30.16 in 4.0 mi South 3.5 mph - N/A   Partly Cloudy
1:54 AM 55.0 °F - 54.0 °F 96% 30.16 in 4.0 mi South 3.5 mph - N/A   Partly Cloudy
1:57 AM 55.9 °F - 54.0 °F 93% 30.17 in 1.8 mi South 3.5 mph - N/A   Partly Cloudy
2:25 AM 55.9 °F - 54.0 °F 93% 30.16 in 3.0 mi Calm Calm - N/A   Clear
2:40 AM 55.9 °F - 54.0 °F 93% 30.16 in 1.8 mi Calm Calm - N/A   Clear
2:50 AM 55.4 °F - 53.6 °F 94% 30.16 in 1.0 mi Calm Calm - N/A   Mist
2:51 AM 55.9 °F - 55.0 °F 97% 30.16 in 1.0 mi Calm Calm - N/A   Mist
2:59 AM 55.9 °F - 55.0 °F 97% 30.16 in 0.5 mi Calm Calm - N/A Fog Fog
3:11 AM 55.9 °F - 55.0 °F 97% 30.16 in 1.2 mi Calm Calm - N/A   Partly Cloudy
3:19 AM 55.9 °F - 54.0 °F 93% 30.17 in 0.8 mi Calm Calm - N/A   Mist
4:35 AM 55.0 °F - 54.0 °F 96% 30.17 in 1.5 mi Calm Calm - N/A   Partly Cloudy
4:54 AM 55.0 °F - 54.0 °F 96% 30.16 in 3.0 mi Calm Calm - N/A   Mostly Cloudy
5:54 AM 57.0 °F - 55.9 °F 96% 30.17 in 4.0 mi Calm Calm - N/A   Overcast
6:09 AM 57.0 °F - 55.9 °F 96% 30.17 in 2.0 mi Calm Calm - N/A   Mostly Cloudy
6:54 AM 57.9 °F - 55.9 °F 93% 30.19 in 2.5 mi Calm Calm - N/A   Scattered Clouds
7:54 AM 61.0 °F - 59.0 °F 93% 30.21 in 2.5 mi SSE 3.5 mph - 0.02 in Rain Light Rain
8:03 AM 61.0 °F - 59.0 °F 93% 30.21 in 1.8 mi ESE 3.5 mph - 0.01 in Rain Light Rain
8:10 AM 62.1 °F - 60.1 °F 93% 30.20 in 2.5 mi ENE 3.5 mph - 0.02 in Rain Light Rain
8:25 AM 62.1 °F - 60.1 °F 93% 30.20 in 4.0 mi Variable 3.5 mph - 0.02 in   Overcast
8:54 AM 64.9 °F - 63.0 °F 93% 30.20 in 5.0 mi East 3.5 mph - 0.02 in   Overcast
9:54 AM 69.1 °F - 64.0 °F 84% 30.21 in 7.0 mi Calm Calm - N/A   Clear
10:54 AM 73.0 °F - 64.9 °F 76% 30.21 in 9.0 mi Calm Calm - N/A   Clear
11:54 AM 75.9 °F - 64.0 °F 67% 30.21 in 10.0 mi Calm Calm - N/A   Clear
2:54 PM 80.1 °F 81.2 °F 62.1 °F 54% 30.18 in 10.0 mi SW 5.8 mph - N/A   Clear
3:54 PM 81.0 °F 81.9 °F 62.1 °F 52% 30.17 in 10.0 mi WSW 3.5 mph - N/A   Clear
4:54 PM 80.1 °F 81.2 °F 62.1 °F 54% 30.17 in 10.0 mi Calm Calm - N/A   Clear
6:54 PM 77.0 °F - 64.0 °F 64% 30.16 in 10.0 mi South 3.5 mph - N/A   Clear
7:54 PM 73.9 °F - 64.9 °F 73% 30.18 in 9.0 mi SSW 3.5 mph - N/A   Partly Cloudy
8:54 PM 71.1 °F - 62.1 °F 73% 30.20 in 10.0 mi Variable 3.5 mph - N/A   Partly Cloudy
9:54 PM 70.0 °F - 60.1 °F 71% 30.21 in 10.0 mi Variable 3.5 mph - N/A   Clear
10:54 PM 66.9 °F - 60.1 °F 79% 30.20 in 10.0 mi Calm Calm - N/A   Clear
11:54 PM 66.0 °F - 61.0 °F 84% 30.21 in 10.0 mi Calm Calm - N/A   Clear